Location: Koussan�
(15.2012°N, 12.5548°W)
Time: 11:25:08
(UTC+00:00)

CZ-2C R/B - Pass Details

Date: 20 October 2020
Orbit: 784 x 871 km, 98.2° (Epoch: 27 November)

Event Time Altitude Azimuth Distance (km) Brightness Sun altitude
Exits shadow 19:40:27 31° 72° (ENE) 1,409 3.3 -18.4°
Maximum altitude 19:41:41 35° 100° (E) 1,306 3.2 -18.7°
Drops below altitude 10° 19:46:30 10° 165° (SSE) 2,402 5.0 -19.9°
Sets 19:49:00 0° 174° (S) 3,320 5.8 -20.5°
